Location: Gallinara
(44.0333°N, 8.2333°E)
Time: 01:37:08
(UTC+00:00)

Meteor 2-9 Rocket - Pass Details

Date: 25 September 2020
Orbit: 791 x 896 km, 81.3° (Epoch: 31 October)

Event Time Altitude Azimuth Distance (km) Brightness Sun altitude
Rises 04:44:15 0° 345° (NNW) 3,379 7.2 -6.9°
Reaches altitude 10° 04:46:43 10° 342° (NNW) 2,426 6.5 -6.5°
Maximum altitude 04:52:04 58° 265° (W) 938 4.2 -5.5°
Drops below altitude 10° 04:57:17 10° 187° (S) 2,360 6.4 -4.6°
Sets 04:59:39 0° 183° (S) 3,279 7.2 -4.1°
